EW3660 Weather Reports


Display with metric or nautical units.
time (UTC)temp
F
wind
direction
speed
MPH
gust
MPH
rain 1hr
in
rain 24hr
in
rain mn
in
humidity
%
barometer
mb
20260503190245 48 105 1.0 2.0 0.00 0.05 0.05 90 1017.5
20260503185742 48 104 2.0 2.0 0.00 0.05 0.05 90 1017.7
20260503185238 47 100 1.0 2.0 0.00 0.05 0.05 90 1017.6
20260503184733 47 65 2.0 2.0 0.09 0.05 0.05 89 1017.9
20260503184230 48 336 0.0 1.0 0.09 0.05 0.05 85 1018.3
20260503183726 49 222 0.0 1.0 0.07 0.04 0.04 82 1018.3
20260503183223 48 240 6.0 13.0 0.21 0.04 0.04 80 1018.6
20260503182721 50 253 3.0 5.0 0.07 0.01 0.01 81 1018.7
20260503182220 49 254 3.0 3.0 0.00 0.00 0.00 78 1018.4
20260503181716 49 251 6.0 8.0 0.00 0.00 0.00 80 1018.5
20260503181213 49 248 5.0 9.0 0.00 0.00 0.00 81 1018.6
20260503180709 50 258 12.0 14.0 0.00 0.00 0.00 81 1018.8
20260503180208 52 262 17.0 21.0 0.00 0.00 0.00 72 1018.6
20260503175704 54 252 15.0 24.0 0.00 0.00 0.00 63 1018.3
20260503175202 55 262 19.0 25.0 0.00 0.00 0.00 58 1018.4
20260503174657 55 239 16.0 22.0 0.00 0.00 0.00 58 1018.2
20260503174155 56 247 11.0 18.0 0.00 0.00 0.00 62 1018.2
20260503173651 56 267 12.0 17.0 0.00 0.00 0.00 60 1018.5
20260503173147 57 252 12.0 17.0 0.00 0.00 0.00 58 1018.6
20260503172644 57 251 13.0 16.0 0.00 0.00 0.00 59 1018.6
20260503172141 57 240 16.0 20.0 0.00 0.00 0.00 58 1018.4
20260503171637 57 245 17.0 18.0 0.00 0.00 0.00 57 1018.4
20260503171135 58 251 13.0 17.0 0.00 0.00 0.00 56 1018.6
20260503170632 57 269 13.0 18.0 0.00 0.00 0.00 58 1018.8
20260503170129 59 263 22.0 23.0 0.00 0.00 0.00 57 1018.8
20260503150520 55 257 17.0 20.0 0.00 0.00 0.00 58 1020.1
20260503131413 48 237 10.0 15.0 0.00 0.00 0.00 64 1020.3
20260503130910 48 259 11.0 16.0 0.00 0.00 0.00 64 1020.5
20260503130408 48 265 12.0 18.0 0.00 0.00 0.00 62 1020.3
20260503110811 40 249 5.0 8.0 0.00 0.00 0.00 76 1020.0
20260503110308 40 237 5.0 9.0 0.00 0.00 0.00 75 1019.9
20260503100235 39 239 9.0 9.0 0.00 0.00 0.00 77 1019.6
20260503090154 40 255 4.0 5.0 0.00 0.00 0.00 76 1019.9
20260503081624 40 236 5.0 5.0 0.00 0.00 0.00 75 1020.0
20260503081121 41 259 3.0 6.0 0.00 0.00 0.00 75 1020.2
20260503080617 41 235 5.0 6.0 0.00 0.00 0.00 74 1020.0
20260503080114 40 240 5.0 7.0 0.00 0.00 0.00 74 1020.1
20260503071506 41 243 5.0 6.0 0.00 0.00 0.00 73 1020.1
20260503071002 41 243 5.0 6.0 0.00 0.00 0.00 73 1020.1
20260503070459 41 265 4.0 5.0 0.00 0.00 0.00 73 1020.3
20260503054923 41 238 5.0 5.0 0.00 0.00 0.00 71 1020.9
20260503054419 41 229 3.0 3.0 0.00 0.00 0.00 71 1020.8
20260503053917 41 234 3.0 3.0 0.00 0.00 0.00 71 1020.7
20260503053415 41 225 3.0 3.0 0.00 0.00 0.00 71 1020.9
20260503052910 41 236 3.0 5.0 0.00 0.00 0.00 70 1020.6
20260503052408 41 230 3.0 5.0 0.00 0.00 0.00 70 1020.7
20260503051904 41 227 4.0 5.0 0.00 0.00 0.00 71 1020.8
20260503051400 41 229 3.0 3.0 0.00 0.00 0.00 70 1020.9
20260503050858 41 227 3.0 5.0 0.00 0.00 0.00 70 1020.9
20260503050354 41 227 3.0 3.0 0.00 0.00 0.00 70 1021.0
20260503045851 41 230 3.0 3.0 0.00 0.00 0.00 70 1021.0
20260503045349 41 225 2.0 2.0 0.00 0.00 0.00 71 1021.1
20260503044845 41 224 1.0 2.0 0.00 0.00 0.00 72 1020.9
20260503044342 41 227 2.0 2.0 0.00 0.00 0.00 73 1021.0
20260503043839 41 220 1.0 1.0 0.00 0.00 0.00 73 1021.0
20260503043336 41 228 1.0 2.0 0.00 0.00 0.00 72 1020.9
20260503042832 41 221 1.0 2.0 0.00 0.00 0.00 73 1021.0
20260503042329 41 222 1.0 2.0 0.00 0.00 0.00 73 1021.1
20260503041825 41 220 1.0 2.0 0.00 0.00 0.00 73 1020.8
20260503041323 41 221 1.0 1.0 0.00 0.00 0.00 73 1020.9
20260503040820 41 220 1.0 2.0 0.00 0.00 0.00 73 1020.9
20260503040318 41 221 1.0 1.0 0.00 0.00 0.00 74 1020.9
20260503035815 41 223 1.0 1.0 0.00 0.00 0.00 74 1021.1
20260503035312 41 223 1.0 2.0 0.00 0.00 0.00 74 1021.2
20260503034809 41 219 1.0 2.0 0.00 0.00 0.00 75 1021.0
20260503034306 41 218 2.0 2.0 0.00 0.00 0.00 74 1021.0
20260503033803 41 223 2.0 2.0 0.00 0.00 0.00 73 1020.7
20260503033300 41 227 1.0 1.0 0.00 0.00 0.00 72 1020.9
20260503032758 41 222 1.0 1.0 0.00 0.00 0.00 72 1021.0
20260503032257 41 225 1.0 1.0 0.00 0.00 0.00 74 1021.1
20260503031754 40 340 0.0 1.0 0.00 0.00 0.00 77 1021.0
20260503031252 40 339 1.0 1.0 0.00 0.00 0.00 81 1021.0
20260503030748 40 340 1.0 1.0 0.00 0.00 0.00 81 1021.2
20260503030245 40 340 0.0 0.0 0.00 0.00 0.00 80 1021.3
20260503025741 41 340 0.0 0.0 0.00 0.00 0.00 78 1021.0
20260503025239 41 340 0.0 0.0 0.00 0.00 0.00 75 1021.2
20260503024735 41 340 1.0 1.0 0.00 0.00 0.00 78 1021.3
20260503024233 41 340 0.0 1.0 0.00 0.00 0.00 76 1021.1
20260503023729 41 340 0.0 0.0 0.00 0.00 0.00 76 1021.4
20260503023227 41 340 0.0 0.0 0.00 0.00 0.00 77 1021.1
20260503022723 41 340 0.0 1.0 0.00 0.00 0.00 82 1021.3
20260503022223 41 340 1.0 1.0 0.00 0.00 0.00 83 1021.2
20260503021720 41 340 1.0 1.0 0.00 0.00 0.00 81 1021.0
20260503021216 41 341 0.0 0.0 0.00 0.00 0.00 80 1021.2
20260503020713 41 341 0.0 0.0 0.00 0.00 0.00 78 1021.0
20260503020211 41 341 0.0 0.0 0.00 0.00 0.00 77 1021.0
20260503015708 42 341 0.0 0.0 0.00 0.00 0.00 76 1020.8
20260503015204 42 341 0.0 0.0 0.00 0.00 0.00 75 1020.7
20260503014700 43 341 0.0 0.0 0.00 0.00 0.00 73 1021.0
20260503014158 43 341 0.0 0.0 0.00 0.00 0.00 67 1021.0
20260503013655 44 340 0.0 1.0 0.00 0.00 0.00 68 1020.7
20260503013153 44 341 0.0 1.0 0.00 0.00 0.00 68 1020.8
20260503012650 44 341 0.0 1.0 0.00 0.00 0.00 67 1020.8
20260503012147 43 341 0.0 1.0 0.00 0.00 0.00 67 1020.8
20260503011643 44 341 0.0 0.0 0.00 0.00 0.00 69 1020.8
20260503011140 44 341 0.0 0.0 0.00 0.00 0.00 68 1020.6
20260503010636 45 341 0.0 0.0 0.00 0.00 0.00 63 1020.5
20260503010134 45 341 0.0 0.0 0.00 0.00 0.00 58 1020.7
20260503005631 46 341 0.0 0.0 0.00 0.00 0.00 56 1020.8
20260503005128 46 342 0.0 0.0 0.00 0.00 0.00 56 1020.8
20260503004624 46 342 0.0 1.0 0.00 0.00 0.00 56 1020.8
20260503004123 47 342 0.0 1.0 0.00 0.00 0.00 58 1020.6
20260503003619 47 341 0.0 1.0 0.00 0.00 0.00 55 1020.8
20260503003116 48 342 1.0 1.0 0.00 0.00 0.00 54 1020.7
20260503002613 48 342 0.0 1.0 0.00 0.00 0.00 53 1020.8
20260503002110 48 339 1.0 1.0 0.00 0.00 0.00 50 1020.7
20260503001606 48 353 1.0 2.0 0.00 0.00 0.00 51 1020.7
20260503001103 49 304 1.0 1.0 0.00 0.00 0.00 53 1020.8
20260503000601 49 307 1.0 1.0 0.00 0.00 0.00 50 1020.6
20260503000058 49 334 2.0 5.0 0.00 0.00 0.00 48 1020.7
20260502235554 49 330 1.0 2.0 0.00 0.00 0.00 48 1020.7
20260502235052 49 310 3.0 5.0 0.00 0.00 0.00 46 1020.5
20260502234548 50 331 2.0 5.0 0.00 0.00 0.00 47 1020.5
20260502234046 50 336 2.0 6.0 0.00 0.00 0.00 45 1020.6
20260502233546 50 342 3.0 6.0 0.00 0.00 0.00 44 1020.4
20260502233043 50 329 3.0 5.0 0.00 0.00 0.00 45 1020.4
20260502232539 50 333 4.0 5.0 0.00 0.00 0.00 48 1020.5
20260502232037 50 283 2.0 5.0 0.00 0.00 0.00 45 1020.5
20260502231533 50 335 4.0 7.0 0.00 0.00 0.00 43 1020.6
20260502231031 50 342 3.0 5.0 0.00 0.00 0.00 43 1020.6
20260502230530 50 305 3.0 5.0 0.00 0.00 0.00 45 1020.6
20260502230028 50 332 2.0 5.0 0.00 0.00 0.00 43 1020.5
20260502225523 50 22 2.0 8.0 0.00 0.00 0.00 44 1020.7
20260502225020 50 352 3.0 6.0 0.00 0.00 0.00 43 1020.9
20260502224516 50 14 4.0 7.0 0.00 0.00 0.00 44 1020.6
20260502224014 51 317 4.0 6.0 0.00 0.00 0.00 46 1020.6
20260502223511 50 314 2.0 3.0 0.00 0.00 0.00 47 1020.5
20260502223009 50 284 3.0 3.0 0.00 0.00 0.00 46 1020.4
20260502222506 51 331 5.0 7.0 0.00 0.00 0.00 47 1020.6
20260502222003 51 315 3.0 5.0 0.00 0.00 0.00 42 1020.7
20260502221458 51 350 3.0 5.0 0.00 0.00 0.00 42 1020.5
20260502220956 51 2 2.0 5.0 0.00 0.00 0.00 43 1020.7
20260502220451 50 305 2.0 3.0 0.00 0.00 0.00 47 1020.8
20260502215948 50 337 2.0 6.0 0.00 0.00 0.00 46 1020.8
20260502215446 50 329 4.0 7.0 0.00 0.00 0.00 44 1020.6
20260502214942 50 7 3.0 8.0 0.00 0.00 0.00 43 1020.7
20260502214439 51 329 4.0 9.0 0.00 0.00 0.00 44 1020.8
20260502213936 50 354 3.0 7.0 0.00 0.00 0.00 45 1020.7
20260502213433 49 288 1.0 3.0 0.00 0.00 0.00 48 1020.5
20260502212932 49 331 2.0 5.0 0.00 0.00 0.00 46 1020.6
20260502212430 49 319 1.0 6.0 0.00 0.00 0.00 46 1020.6
20260502211927 50 349 4.0 6.0 0.00 0.00 0.00 45 1020.5
20260502211423 50 326 2.0 7.0 0.00 0.00 0.00 46 1020.4
20260502210920 50 329 3.0 7.0 0.00 0.00 0.00 44 1020.6
20260502210417 49 339 3.0 6.0 0.00 0.00 0.00 47 1020.6
20260502205914 50 303 2.0 5.0 0.00 0.00 0.00 47 1020.6
20260502205410 51 298 2.0 3.0 0.00 0.00 0.00 48 1020.8
20260502204908 51 4 4.0 8.0 0.00 0.00 0.00 47 1020.7
20260502204404 51 321 3.0 6.0 0.00 0.00 0.00 47 1020.6
20260502203902 51 292 1.0 6.0 0.00 0.00 0.00 46 1020.8
20260502203359 51 331 4.0 6.0 0.00 0.00 0.00 43 1020.7
20260502202855 51 329 6.0 8.0 0.00 0.00 0.00 47 1021.0
20260502202352 50 339 3.0 5.0 0.00 0.00 0.00 45 1020.9
20260502201850 50 26 3.0 7.0 0.00 0.00 0.00 45 1020.8
20260502201346 50 354 4.0 7.0 0.00 0.00 0.00 46 1021.1
20260502200843 51 0 3.0 6.0 0.00 0.00 0.00 46 1021.2
20260502200338 50 40 5.0 6.0 0.00 0.00 0.00 46 1021.2
20260502195837 49 38 5.0 7.0 0.00 0.00 0.00 47 1021.1
20260502195333 50 338 4.0 6.0 0.00 0.00 0.00 47 1021.1
20260502194830 49 7 5.0 8.0 0.00 0.00 0.00 46 1021.2
20260502194327 50 2 2.0 7.0 0.00 0.00 0.00 46 1021.3
20260502193822 51 335 3.0 3.0 0.00 0.00 0.00 48 1021.2
20260502193320 50 80 3.0 5.0 0.00 0.00 0.00 44 1021.3
20260502192815 50 334 3.0 6.0 0.00 0.00 0.00 48 1021.5
20260502192312 51 334 2.0 5.0 0.00 0.00 0.00 48 1021.4
20260502191810 53 327 3.0 6.0 0.00 0.00 0.00 48 1021.4
20260502191307 52 335 3.0 6.0 0.00 0.00 0.00 48 1021.6
20260502190804 51 330 3.0 6.0 0.00 0.00 0.00 48 1021.6